Location: Rodson Ranch
(38.7188°N, 119.3202°W)
Time: 16:33:52
(UTC+00:00)

SJ-12 - Pass Details

Date: 29 October 2020
Orbit: 568 x 585 km, 97.7° (Epoch: 22 November)

Event Time Altitude Azimuth Distance (km) Brightness Sun altitude
Rises 13:30:03 0° 4° (N) 2,804 7.4 -10.6°
Reaches altitude 10° 13:32:18 10° 357° (N) 1,897 6.4 -10.2°
Maximum altitude 13:36:09 40° 287° (WNW) 857 4.3 -9.5°
Drops below altitude 10° 13:39:57 10° 218° (SW) 1,874 6.3 -8.7°
Sets 13:42:10 0° 211° (SSW) 2,764 7.2 -8.3°
